Location: *
(2.5500°S, 65.9667°W)
Time: 06:54:50
(UTC+00:00)

Explorer 7 - Pass Details

Date: 25 April 2024
Orbit: 467 x 625 km, 50.3° (Epoch: 26 May)

Event Time Altitude Azimuth Distance (km) Brightness Sun altitude
Rises 09:12:07 0° 187° (S) 2,615 - -17.5°
Exits shadow 09:12:41 - 184° (S) 2,431 9.9 -17.4°
Reaches altitude 10° 09:15:05 10° 163° (SSE) 1,762 9.4 -16.8°
Maximum altitude 09:17:24 15° 127° (SE) 1,504 9.5 -16.2°
Drops below altitude 10° 09:19:47 10° 92° (E) 1,816 10.7 -15.7°
Sets 09:22:54 0° 68° (ENE) 2,748 12.2 -14.9°
